Rugby, ND

6:00 AM CDT on August 17, 2017 (GMT -0500)
Rugby Municipal

Weather History for KRUG - February, 2014

Change the Weather History Date:

Sunday, February 23, 2014

  Actual Average Record
Temperature  
Mean Temperature -3 °F -  
Max Temperature 5 °F 27 °F 51 °F (1958)
Min Temperature -11 °F 7 °F -24 °F (1993)
Degree Days  
Heating Degree Days 68    
Moisture  
Dew Point -7 °F    
Average Humidity 79    
Maximum Humidity 92    
Minimum Humidity 71    
Precipitation  
Precipitation 0.00 in - - ()
Sea Level Pressure  
Sea Level Pressure 30.27 in    
Wind  
Wind Speed 17 mph (WNW)    
Max Wind Speed 26 mph    
Max Gust Speed 29 mph    
Visibility 10 miles    
Events      
Averages and records for this station are not official NWS values.
T = Trace of Precipitation, MM = Missing Value Source: NWS Daily Summary

Daily Weather History Graph

Daily Weather History Graph

Search for Another Location

Airport or City:

Trip Planner

Search our weather history database for the weather conditions in past years. The results will help you decide how hot, cold, wet, or windy it might be!

Date:

Astronomy

Feb. 23, 2014 Rise Set
Actual Time 7:32 AM CST 6:14 PM CST
Civil Twilight 7:01 AM CST 6:46 PM CST
Nautical Twilight 6:24 AM CST 7:22 PM CST
Astronomical Twilight 5:48 AM CST 7:59 PM CST
Moon 2:47 AM CST (2/23) 12:04 PM CST (2/23)
Length of Visible Light 11h 45m
Length of Day
10h 42m
Last Quarter, 38% of the Moon is Illuminated
Feb 23
Last Quarter
Mar 1
New
Mar 8
First Quarter
Mar 16
Full
Mar 23
Last Quarter

Hourly Weather History & Observations

Time (CST) Temp. Windchill Dew Point Humidity Pressure Visibility Wind Dir Wind Speed Gust Speed Precip Events Conditions
12:15 AM 5.0 °F -15.2 °F -0.4 °F 78% 30.15 in 10.0 mi WNW 19.6 mph - N/A   Scattered Clouds
12:35 AM 5.0 °F -13.6 °F -0.4 °F 78% 30.15 in 10.0 mi WNW 16.1 mph - N/A   Scattered Clouds
12:55 AM 1.4 °F -16.9 °F -2.2 °F 85% 30.16 in 10.0 mi WNW 13.8 mph - N/A   Partly Cloudy
1:15 AM 1.4 °F -18.2 °F -2.2 °F 85% 30.16 in 10.0 mi WNW 16.1 mph - N/A   Clear
1:35 AM 1.4 °F -19.4 °F -2.2 °F 85% 30.16 in 10.0 mi WNW 18.4 mph - N/A   Clear
1:55 AM 1.4 °F -18.8 °F -2.2 °F 85% 30.16 in 10.0 mi NW 17.3 mph - N/A   Clear
2:15 AM 1.4 °F -18.2 °F -2.2 °F 85% 30.17 in 10.0 mi WNW 16.1 mph - N/A   Clear
2:35 AM -0.4 °F -19.2 °F -2.2 °F 92% 30.17 in 10.0 mi WNW 13.8 mph - N/A   Clear
2:55 AM -0.4 °F -19.9 °F -2.2 °F 92% 30.18 in 10.0 mi WNW 15.0 mph 20.7 mph N/A   Clear
3:15 AM -0.4 °F -18.4 °F -4.0 °F 85% 30.18 in 10.0 mi WNW 12.7 mph - N/A   Clear
3:35 AM -0.4 °F -17.6 °F -4.0 °F 85% 30.18 in 10.0 mi WNW 11.5 mph - N/A   Clear
3:55 AM -0.4 °F -18.4 °F -4.0 °F 85% 30.19 in 10.0 mi WNW 12.7 mph - N/A   Clear
4:15 AM -0.4 °F -17.6 °F -4.0 °F 85% 30.19 in 10.0 mi WNW 11.5 mph - N/A   Clear
4:35 AM -2.2 °F -20.7 °F -7.6 °F 78% 30.20 in 10.0 mi WNW 12.7 mph - N/A   Clear
4:55 AM -4.0 °F -21.2 °F -7.6 °F 85% 30.20 in 10.0 mi WNW 10.4 mph - N/A   Clear
5:15 AM -4.0 °F -21.2 °F -9.4 °F 78% 30.21 in 10.0 mi West 10.4 mph - N/A   Clear
5:35 AM -4.0 °F -22.1 °F -9.4 °F 78% 30.22 in 10.0 mi West 11.5 mph - N/A   Clear
5:55 AM -4.0 °F -22.1 °F -9.4 °F 78% 30.22 in 10.0 mi West 11.5 mph - N/A   Clear
6:15 AM -4.0 °F -23.0 °F -9.4 °F 78% 30.22 in 10.0 mi WNW 12.7 mph - N/A   Clear
6:35 AM -5.8 °F -24.4 °F -9.4 °F 84% 30.23 in 10.0 mi WNW 11.5 mph - N/A   Clear
6:55 AM -5.8 °F -25.2 °F -11.2 °F 77% 30.24 in 10.0 mi West 12.7 mph - N/A   Clear
7:15 AM -5.8 °F -26.0 °F -9.4 °F 84% 30.24 in 10.0 mi WNW 13.8 mph - N/A   Clear
7:35 AM -5.8 °F -26.8 °F -9.4 °F 84% 30.25 in 10.0 mi WNW 15.0 mph - N/A   Clear
7:55 AM -5.8 °F -26.0 °F -11.2 °F 77% 30.25 in 10.0 mi WNW 13.8 mph - N/A   Clear
8:15 AM -5.8 °F -26.8 °F -9.4 °F 84% 30.26 in 10.0 mi WNW 15.0 mph - N/A   Clear
8:35 AM -5.8 °F -27.5 °F -9.4 °F 84% 30.26 in 10.0 mi WNW 16.1 mph - N/A   Clear
8:55 AM -4.0 °F -25.2 °F -9.4 °F 78% 30.27 in 10.0 mi WNW 16.1 mph - N/A   Clear
9:15 AM -4.0 °F -24.5 °F -9.4 °F 78% 30.27 in 10.0 mi WNW 15.0 mph - N/A   Clear
9:35 AM -2.2 °F -25.7 °F -9.4 °F 71% 30.27 in 10.0 mi WNW 21.9 mph 26.5 mph N/A   Clear
9:55 AM -2.2 °F -25.2 °F -9.4 °F 71% 30.28 in 10.0 mi WNW 20.7 mph - N/A   Clear
10:15 AM -2.2 °F -24.7 °F -7.6 °F 78% 30.29 in 10.0 mi WNW 19.6 mph - N/A   Clear
10:35 AM -0.4 °F -22.8 °F -7.6 °F 72% 30.29 in 10.0 mi NW 20.7 mph - N/A   Clear
10:55 AM -0.4 °F -24.3 °F -7.6 °F 72% 30.30 in 10.0 mi NW 24.2 mph 27.6 mph N/A   Clear
11:15 AM -0.4 °F -23.3 °F -7.6 °F 72% 30.30 in 10.0 mi NW 21.9 mph 26.5 mph N/A   Clear
11:35 AM -0.4 °F -22.8 °F -7.6 °F 72% 30.30 in 10.0 mi WNW 20.7 mph 28.8 mph N/A   Clear
11:55 AM -0.4 °F -22.3 °F -7.6 °F 72% 30.31 in 10.0 mi WNW 19.6 mph - N/A   Clear
12:15 PM -0.4 °F -23.3 °F -5.8 °F 78% 30.31 in 10.0 mi NW 21.9 mph 28.8 mph N/A   Clear
12:35 PM -0.4 °F -24.3 °F -5.8 °F 78% 30.30 in 10.0 mi NW 24.2 mph - N/A   Clear
12:55 PM -0.4 °F -23.8 °F -4.0 °F 85% 30.30 in 10.0 mi NW 23.0 mph - N/A   Clear
1:15 PM -0.4 °F -23.8 °F -5.8 °F 78% 30.30 in 10.0 mi WNW 23.0 mph - N/A   Clear
1:35 PM -0.4 °F -24.3 °F -4.0 °F 85% 30.30 in 10.0 mi NW 24.2 mph - N/A   Clear
1:55 PM 1.4 °F -21.4 °F -4.0 °F 78% 30.30 in 10.0 mi WNW 23.0 mph - N/A   Clear
2:15 PM 1.4 °F -21.9 °F -4.0 °F 78% 30.30 in 10.0 mi NW 24.2 mph - N/A   Clear
2:35 PM 1.4 °F -21.9 °F -4.0 °F 78% 30.30 in 10.0 mi NW 24.2 mph - N/A   Clear
2:55 PM 1.4 °F -20.5 °F -4.0 °F 78% 30.31 in 10.0 mi NW 20.7 mph - N/A   Clear
3:15 PM 1.4 °F -21.0 °F -4.0 °F 78% 30.31 in 10.0 mi NW 21.9 mph - N/A   Clear
3:35 PM 1.4 °F -21.0 °F -4.0 °F 78% 30.31 in 10.0 mi WNW 21.9 mph - N/A   Clear
3:55 PM 1.4 °F -22.7 °F -4.0 °F 78% 30.31 in 10.0 mi WNW 26.5 mph - N/A   Clear
4:15 PM 1.4 °F -21.9 °F -4.0 °F 78% 30.31 in 10.0 mi WNW 24.2 mph - N/A   Clear
4:35 PM 1.4 °F -19.9 °F -4.0 °F 78% 30.31 in 10.0 mi WNW 19.6 mph - N/A   Clear
4:55 PM -0.4 °F -22.3 °F -4.0 °F 85% 30.32 in 10.0 mi WNW 19.6 mph 25.3 mph N/A   Clear
5:15 PM -0.4 °F -22.3 °F -5.8 °F 78% 30.32 in 10.0 mi WNW 19.6 mph 26.5 mph N/A   Clear
5:35 PM -0.4 °F -22.3 °F -5.8 °F 78% 30.32 in 10.0 mi WNW 19.6 mph - N/A   Clear
5:55 PM -0.4 °F -21.2 °F -7.6 °F 72% 30.32 in 10.0 mi WNW 17.3 mph - N/A   Clear
6:15 PM -0.4 °F -21.2 °F -7.6 °F 72% 30.33 in 10.0 mi WNW 17.3 mph - N/A   Clear
6:35 PM -4.0 °F -21.2 °F -9.4 °F 78% 30.33 in 10.0 mi WNW 10.4 mph - N/A   Clear
6:55 PM -2.2 °F -22.2 °F -9.4 °F 71% 30.33 in 10.0 mi WNW 15.0 mph - N/A   Clear
7:15 PM -2.2 °F -23.5 °F -9.4 °F 71% 30.34 in 10.0 mi WNW 17.3 mph - N/A   Clear
7:35 PM -2.2 °F -23.5 °F -9.4 °F 71% 30.34 in 10.0 mi WNW 17.3 mph - N/A   Clear
7:55 PM -4.0 °F -24.5 °F -11.2 °F 71% 30.33 in 10.0 mi WNW 15.0 mph - N/A   Clear
8:15 PM -4.0 °F -23.7 °F -11.2 °F 71% 30.33 in 10.0 mi WNW 13.8 mph 21.9 mph N/A   Clear
8:35 PM -7.6 °F -26.6 °F -11.2 °F 84% 30.34 in 10.0 mi WNW 11.5 mph - N/A   Clear
8:55 PM -5.8 °F -27.5 °F - N/A% 30.33 in 10.0 mi WNW 16.1 mph - N/A   Clear
9:15 PM -7.6 °F -27.5 °F -13.0 °F 77% 30.33 in 10.0 mi WNW 12.7 mph - N/A   Clear
9:35 PM -7.6 °F -26.6 °F -13.0 °F 77% 30.34 in 10.0 mi WNW 11.5 mph - N/A   Clear
9:55 PM -7.6 °F -27.5 °F -13.0 °F 77% 30.34 in 10.0 mi WNW 12.7 mph - N/A   Clear
10:15 PM -7.6 °F -27.5 °F -13.0 °F 77% 30.34 in 10.0 mi WNW 12.7 mph - N/A   Clear
10:35 PM -7.6 °F -29.1 °F -13.0 °F 77% 30.33 in 10.0 mi WNW 15.0 mph - N/A   Clear
10:55 PM -11.2 °F -32.1 °F -16.6 °F 77% 30.34 in 10.0 mi West 12.7 mph - N/A   Clear
11:15 PM -11.2 °F -31.1 °F -16.6 °F 77% 30.34 in 10.0 mi WNW 11.5 mph - N/A   Clear
11:35 PM -11.2 °F -31.1 °F -16.6 °F 77% 30.34 in 10.0 mi WNW 11.5 mph - N/A   Clear
11:55 PM -11.2 °F -32.1 °F -16.6 °F 77% 30.33 in 10.0 mi WNW 12.7 mph - N/A   Clear